Time,TemperatureF,DewpointF,PressureIn,WindDirection,WindDirectionDegrees,WindSpeedMPH,WindSpeedGustMPH,Humidity,HourlyPrecipIn,Conditions,Clouds,dailyrainin,SoftwareType,DateUTC
2013-04-28 00:01:00,46.4,33.0,30.30,SE,145,0.0,-999.0,59,-99.99,,,0.00,weatherlink.com 1.10,2013-04-28 04:01:00,
2013-04-28 00:16:00,45.8,32.0,30.30,SE,145,0.0,-999.0,60,-99.99,,,0.00,weatherlink.com 1.10,2013-04-28 04:16:00,
2013-04-28 00:31:00,45.2,33.0,30.30,SE,145,0.0,-999.0,62,-99.99,,,0.00,weatherlink.com 1.10,2013-04-28 04:31:00,
2013-04-28 00:46:00,44.8,33.0,30.30,SE,145,0.0,-999.0,64,-99.99,,,0.00,weatherlink.com 1.10,2013-04-28 04:46:00,
2013-04-28 01:01:00,44.2,33.0,30.30,SE,145,0.0,-999.0,65,-99.99,,,0.00,weatherlink.com 1.10,2013-04-28 05:01:00,
2013-04-28 01:16:00,43.5,33.0,30.30,SE,145,0.0,-999.0,66,-99.99,,,0.00,weatherlink.com 1.10,2013-04-28 05:16:00,
2013-04-28 01:31:00,43.1,33.0,30.29,SE,145,0.0,-999.0,67,-99.99,,,0.00,weatherlink.com 1.10,2013-04-28 05:31:00,
2013-04-28 01:46:00,42.5,33.0,30.29,SE,145,0.0,-999.0,68,-99.99,,,0.00,weatherlink.com 1.10,2013-04-28 05:46:00,
2013-04-28 02:01:00,42.1,33.0,30.29,SE,145,0.0,-999.0,69,-99.99,,,0.00,weatherlink.com 1.10,2013-04-28 06:01:00,
2013-04-28 02:16:00,41.6,33.0,30.29,SE,145,0.0,-999.0,71,-99.99,,,0.00,weatherlink.com 1.10,2013-04-28 06:16:00,
2013-04-28 02:31:00,41.2,33.0,30.29,SE,145,0.0,-999.0,73,-99.99,,,0.00,weatherlink.com 1.10,2013-04-28 06:31:00,
2013-04-28 02:46:00,40.9,33.0,30.29,SE,145,0.0,-999.0,74,-99.99,,,0.00,weatherlink.com 1.10,2013-04-28 06:46:00,
2013-04-28 03:01:00,40.6,34.0,30.28,SE,145,0.0,-999.0,76,-99.99,,,0.00,weatherlink.com 1.10,2013-04-28 07:01:00,
2013-04-28 03:16:00,40.2,33.0,30.29,SE,145,0.0,-999.0,76,-99.99,,,0.00,weatherlink.com 1.10,2013-04-28 07:16:00,
2013-04-28 03:31:00,39.9,33.0,30.28,SE,145,0.0,-999.0,77,-99.99,,,0.00,weatherlink.com 1.10,2013-04-28 07:31:00,
2013-04-28 03:46:00,39.5,33.0,30.28,SE,145,0.0,-999.0,78,-99.99,,,0.00,weatherlink.com 1.10,2013-04-28 07:46:00,
2013-04-28 04:01:00,39.1,33.0,30.28,SE,145,0.0,-999.0,78,-99.99,,,0.00,weatherlink.com 1.10,2013-04-28 08:01:00,
2013-04-28 04:16:00,38.6,33.0,30.28,SE,145,0.0,-999.0,79,-99.99,,,0.00,weatherlink.com 1.10,2013-04-28 08:16:00,
2013-04-28 04:31:00,38.2,32.0,30.28,SE,145,0.0,-999.0,79,-99.99,,,0.00,weatherlink.com 1.10,2013-04-28 08:31:00,
2013-04-28 04:46:00,37.5,32.0,30.28,SE,145,0.0,-999.0,81,-99.99,,,0.00,weatherlink.com 1.10,2013-04-28 08:46:00,
2013-04-28 05:01:00,37.2,32.0,30.28,SE,145,0.0,-999.0,81,-99.99,,,0.00,weatherlink.com 1.10,2013-04-28 09:01:00,
2013-04-28 05:16:00,36.9,32.0,30.28,SE,145,0.0,-999.0,82,-99.99,,,0.00,weatherlink.com 1.10,2013-04-28 09:16:00,
2013-04-28 05:31:00,36.6,32.0,30.28,SE,145,0.0,-999.0,84,-99.99,,,0.00,weatherlink.com 1.10,2013-04-28 09:31:00,
2013-04-28 05:46:00,36.6,32.0,30.28,SE,145,0.0,-999.0,84,-99.99,,,0.00,weatherlink.com 1.10,2013-04-28 09:46:00,
2013-04-28 06:01:00,36.5,32.0,30.29,SE,145,0.0,-999.0,85,-99.99,,,0.00,weatherlink.com 1.10,2013-04-28 10:01:00,
2013-04-28 06:16:00,36.0,32.0,30.29,SE,145,0.0,-999.0,85,-99.99,,,0.00,weatherlink.com 1.10,2013-04-28 10:16:00,
2013-04-28 06:31:00,35.9,32.0,30.29,SE,145,0.0,-999.0,85,-99.99,,,0.00,weatherlink.com 1.10,2013-04-28 10:31:00,
2013-04-28 06:46:00,35.9,32.0,30.30,SE,145,0.0,-999.0,86,-99.99,,,0.00,weatherlink.com 1.10,2013-04-28 10:46:00,
2013-04-28 07:01:00,36.6,34.0,30.30,SE,145,0.0,-999.0,89,-99.99,,,0.00,weatherlink.com 1.10,2013-04-28 11:01:00,
2013-04-28 07:16:00,37.8,37.0,30.30,SE,145,0.0,-999.0,95,-99.99,,,0.00,weatherlink.com 1.10,2013-04-28 11:16:00,
2013-04-28 07:31:00,40.1,39.0,30.30,SE,143,0.0,-999.0,96,-99.99,,,0.00,weatherlink.com 1.10,2013-04-28 11:31:00,
2013-04-28 07:46:00,42.6,40.0,30.31,SE,141,1.0,-999.0,90,-99.99,,,0.00,weatherlink.com 1.10,2013-04-28 11:46:00,
2013-04-28 08:01:00,44.8,39.0,30.31,East,86,0.0,-999.0,80,-99.99,,,0.00,weatherlink.com 1.10,2013-04-28 12:01:00,
2013-04-28 08:16:00,46.8,36.0,30.32,East,93,0.0,-999.0,67,-99.99,,,0.00,weatherlink.com 1.10,2013-04-28 12:16:00,
2013-04-28 08:31:00,48.9,35.0,30.32,East,92,0.0,-999.0,60,-99.99,,,0.00,weatherlink.com 1.10,2013-04-28 12:31:00,
2013-04-28 08:46:00,50.5,36.0,30.32,East,93,0.0,-999.0,58,-99.99,,,0.00,weatherlink.com 1.10,2013-04-28 12:46:00,
2013-04-28 09:01:00,52.6,37.0,30.32,East,93,0.0,-999.0,55,-99.99,,,0.00,weatherlink.com 1.10,2013-04-28 13:01:00,
2013-04-28 09:16:00,54.2,36.0,30.32,East,97,1.0,-999.0,50,-99.99,,,0.00,weatherlink.com 1.10,2013-04-28 13:16:00,
2013-04-28 09:31:00,55.6,37.0,30.32,SE,128,0.0,-999.0,49,-99.99,,,0.00,weatherlink.com 1.10,2013-04-28 13:31:00,
2013-04-28 09:46:00,57.2,35.0,30.31,South,171,1.0,-999.0,44,-99.99,,,0.00,weatherlink.com 1.10,2013-04-28 13:46:00,
2013-04-28 10:01:00,58.1,35.0,30.31,South,174,1.0,-999.0,43,-99.99,,,0.00,weatherlink.com 1.10,2013-04-28 14:01:00,
2013-04-28 10:16:00,59.9,36.0,30.31,SE,141,3.0,-999.0,41,-99.99,,,0.00,weatherlink.com 1.10,2013-04-28 14:16:00,
2013-04-28 10:31:00,60.7,35.0,30.31,South,189,2.0,-999.0,38,-99.99,,,0.00,weatherlink.com 1.10,2013-04-28 14:31:00,
2013-04-28 10:46:00,62.1,35.0,30.30,SSW,209,3.0,-999.0,36,-99.99,,,0.00,weatherlink.com 1.10,2013-04-28 14:46:00,
2013-04-28 11:01:00,63.1,35.0,30.30,South,178,5.0,-999.0,35,-99.99,,,0.00,weatherlink.com 1.10,2013-04-28 15:01:00,
2013-04-28 11:16:00,64.7,35.0,30.29,SE,127,0.0,-999.0,33,-99.99,,,0.00,weatherlink.com 1.10,2013-04-28 15:16:00,
2013-04-28 11:31:00,66.3,33.0,30.29,SE,136,2.0,-999.0,29,-99.99,,,0.00,weatherlink.com 1.10,2013-04-28 15:31:00,
2013-04-28 11:46:00,66.3,32.0,30.28,SW,215,6.0,-999.0,28,-99.99,,,0.00,weatherlink.com 1.10,2013-04-28 15:46:00,
2013-04-28 12:01:00,67.1,32.0,30.28,SE,124,1.0,-999.0,27,-99.99,,,0.00,weatherlink.com 1.10,2013-04-28 16:01:00,
2013-04-28 12:16:00,68.8,33.0,30.27,East,99,1.0,-999.0,27,-99.99,,,0.00,weatherlink.com 1.10,2013-04-28 16:16:00,
2013-04-28 12:31:00,69.8,28.0,30.27,NNW,335,2.0,-999.0,21,-99.99,,,0.00,weatherlink.com 1.10,2013-04-28 16:31:00,
2013-04-28 12:46:00,70.6,34.0,30.26,SE,138,0.0,-999.0,26,-99.99,,,0.00,weatherlink.com 1.10,2013-04-28 16:46:00,
2013-04-28 13:01:00,72.0,31.0,30.25,South,189,1.0,-999.0,22,-99.99,,,0.00,weatherlink.com 1.10,2013-04-28 17:01:00,
2013-04-28 13:16:00,71.8,31.0,30.25,WSW,241,1.0,-999.0,22,-99.99,,,0.00,weatherlink.com 1.10,2013-04-28 17:16:00,
2013-04-28 13:31:00,72.0,29.0,30.24,SSE,155,1.0,-999.0,20,-99.99,,,0.00,weatherlink.com 1.10,2013-04-28 17:31:00,
2013-04-28 13:46:00,72.5,30.0,30.23,ESE,109,3.0,-999.0,21,-99.99,,,0.00,weatherlink.com 1.10,2013-04-28 17:46:00,
2013-04-28 14:01:00,74.0,33.0,30.23,ESE,106,0.0,-999.0,22,-99.99,,,0.00,weatherlink.com 1.10,2013-04-28 18:01:00,
2013-04-28 14:16:00,74.0,29.0,30.23,SW,236,3.0,-999.0,19,-99.99,,,0.00,weatherlink.com 1.10,2013-04-28 18:16:00,
2013-04-28 14:31:00,74.2,28.0,30.22,South,182,1.0,-999.0,18,-99.99,,,0.00,weatherlink.com 1.10,2013-04-28 18:31:00,
2013-04-28 14:46:00,73.5,29.0,30.21,West,264,0.0,-999.0,19,-99.99,,,0.00,weatherlink.com 1.10,2013-04-28 18:46:00,
2013-04-28 15:01:00,73.2,27.0,30.21,South,191,0.0,-999.0,18,-99.99,,,0.00,weatherlink.com 1.10,2013-04-28 19:01:00,
2013-04-28 15:16:00,73.5,29.0,30.20,South,191,2.0,-999.0,19,-99.99,,,0.00,weatherlink.com 1.10,2013-04-28 19:16:00,
2013-04-28 15:31:00,73.7,28.0,30.19,South,189,3.0,-999.0,18,-99.99,,,0.00,weatherlink.com 1.10,2013-04-28 19:31:00,
2013-04-28 15:46:00,73.9,28.0,30.18,SW,223,5.0,-999.0,18,-99.99,,,0.00,weatherlink.com 1.10,2013-04-28 19:46:00,
2013-04-28 16:01:00,73.7,28.0,30.18,SE,131,1.0,-999.0,18,-99.99,,,0.00,weatherlink.com 1.10,2013-04-28 20:01:00,
2013-04-28 16:16:00,73.9,30.0,30.18,SE,131,6.0,-999.0,20,-99.99,,,0.00,weatherlink.com 1.10,2013-04-28 20:16:00,
2013-04-28 16:31:00,71.5,29.0,30.18,SE,141,0.0,-999.0,21,-99.99,,,0.00,weatherlink.com 1.10,2013-04-28 20:31:00,
2013-04-28 16:46:00,70.9,30.0,30.18,SE,133,3.0,-999.0,22,-99.99,,,0.00,weatherlink.com 1.10,2013-04-28 20:46:00,
2013-04-28 17:01:00,70.3,30.0,30.18,South,169,6.0,-999.0,22,-99.99,,,0.00,weatherlink.com 1.10,2013-04-28 21:01:00,
2013-04-28 17:16:00,69.1,31.0,30.18,SSE,167,2.0,-999.0,24,-99.99,,,0.00,weatherlink.com 1.10,2013-04-28 21:16:00,
2013-04-28 17:31:00,67.1,30.0,30.19,SSE,148,2.0,-999.0,25,-99.99,,,0.00,weatherlink.com 1.10,2013-04-28 21:31:00,
2013-04-28 17:46:00,66.1,30.0,30.19,South,189,3.0,-999.0,26,-99.99,,,0.00,weatherlink.com 1.10,2013-04-28 21:46:00,
2013-04-28 18:01:00,65.5,30.0,30.19,SE,130,2.0,-999.0,27,-99.99,,,0.00,weatherlink.com 1.10,2013-04-28 22:01:00,
2013-04-28 18:16:00,65.3,31.0,30.19,SSE,151,2.0,-999.0,28,-99.99,,,0.00,weatherlink.com 1.10,2013-04-28 22:16:00,
2013-04-28 18:31:00,64.7,32.0,30.19,South,178,2.0,-999.0,29,-99.99,,,0.00,weatherlink.com 1.10,2013-04-28 22:31:00,
2013-04-28 18:46:00,63.7,32.0,30.19,SE,143,2.0,-999.0,30,-99.99,,,0.00,weatherlink.com 1.10,2013-04-28 22:46:00,
2013-04-28 19:01:00,62.6,32.0,30.19,SSE,157,0.0,-999.0,32,-99.99,,,0.00,weatherlink.com 1.10,2013-04-28 23:01:00,
2013-04-28 19:16:00,61.5,33.0,30.19,ENE,78,2.0,-999.0,34,-99.99,,,0.00,weatherlink.com 1.10,2013-04-28 23:16:00,
2013-04-28 19:31:00,60.5,33.0,30.19,SE,124,1.0,-999.0,35,-99.99,,,0.00,weatherlink.com 1.10,2013-04-28 23:31:00,
2013-04-28 19:46:00,59.5,33.0,30.19,SE,133,0.0,-999.0,37,-99.99,,,0.00,weatherlink.com 1.10,2013-04-28 23:46:00,
2013-04-28 20:01:00,58.6,33.0,30.19,ESE,121,0.0,-999.0,38,-99.99,,,0.00,weatherlink.com 1.10,2013-04-29 00:01:00,
2013-04-28 20:16:00,57.8,33.0,30.19,ESE,120,0.0,-999.0,39,-99.99,,,0.00,weatherlink.com 1.10,2013-04-29 00:16:00,
2013-04-28 20:31:00,57.0,33.0,30.20,ESE,120,0.0,-999.0,41,-99.99,,,0.00,weatherlink.com 1.10,2013-04-29 00:31:00,
2013-04-28 20:46:00,56.5,31.0,30.20,ESE,123,2.0,-999.0,38,-99.99,,,0.00,weatherlink.com 1.10,2013-04-29 00:46:00,
2013-04-28 21:01:00,56.3,29.0,30.21,ESE,119,0.0,-999.0,36,-99.99,,,0.00,weatherlink.com 1.10,2013-04-29 01:01:00,
2013-04-28 21:16:00,56.3,27.0,30.21,SSE,157,0.0,-999.0,33,-99.99,,,0.00,weatherlink.com 1.10,2013-04-29 01:16:00,
2013-04-28 21:31:00,56.2,28.0,30.21,South,171,0.0,-999.0,34,-99.99,,,0.00,weatherlink.com 1.10,2013-04-29 01:31:00,
2013-04-28 21:46:00,55.4,28.0,30.22,South,172,0.0,-999.0,35,-99.99,,,0.00,weatherlink.com 1.10,2013-04-29 01:46:00,
2013-04-28 22:01:00,55.0,28.0,30.22,South,172,0.0,-999.0,36,-99.99,,,0.00,weatherlink.com 1.10,2013-04-29 02:01:00,
2013-04-28 22:16:00,54.4,28.0,30.22,SSE,168,0.0,-999.0,36,-99.99,,,0.00,weatherlink.com 1.10,2013-04-29 02:16:00,
2013-04-28 22:31:00,53.8,28.0,30.23,SSE,168,0.0,-999.0,37,-99.99,,,0.00,weatherlink.com 1.10,2013-04-29 02:31:00,
2013-04-28 22:46:00,53.3,28.0,30.23,SSE,167,0.0,-999.0,38,-99.99,,,0.00,weatherlink.com 1.10,2013-04-29 02:46:00,
2013-04-28 23:01:00,52.6,30.0,30.23,SSE,167,0.0,-999.0,42,-99.99,,,0.00,weatherlink.com 1.10,2013-04-29 03:01:00,
2013-04-28 23:16:00,51.4,31.0,30.23,SSE,167,0.0,-999.0,46,-99.99,,,0.00,weatherlink.com 1.10,2013-04-29 03:16:00,
2013-04-28 23:31:00,50.8,31.0,30.23,SSE,167,0.0,-999.0,47,-99.99,,,0.00,weatherlink.com 1.10,2013-04-29 03:31:00,
2013-04-28 23:46:00,50.4,31.0,30.23,SSE,167,0.0,-999.0,48,-99.99,,,0.00,weatherlink.com 1.10,2013-04-29 03:46:00,